sat.trackr.live / text

‹ back to catalog

STARLINK-5431

NORAD 54792 · 2022-175AL

PAYLOAD ACTIVE UNKNOWN

§ Identity

Operator
Country
US
Launch date
2022-12-17
Launch site
AFETR
Launch vehicle
Mass (kg)
RCS (m²)

Purposes: comms

External: N2YO · Heavens-Above · Gunter

§ Orbital elements

Epoch: 2026-09-20T11:46:47.673120Z

Period
94.00 min
Inclination
53.1594°
Eccentricity
0.0002398
Mean motion
15.31991654 rev/d
Perigee alt
468.2 km
Apogee alt
471.5 km
Semi-major
6,848.0 km
B*
5.3713e-4
RAAN
238.0119°
Arg perigee
79.8107°
Mean anomaly
280.3164°
Rev number
20,948

§ Raw data

STARLINK-54311 54792U 22175AL  26263.49082955  .00016492  00000+0  53713-3 0  99982 54792  53.1594 238.0119 0002398  79.8107 280.3164 15.31991654209485

JSON: /api/v1/satellites/54792 · /tle

For live sub-satellite position, see the globe view (requires WebGL).

§ Visibility from observer

Set your observer location to see the next 7 days of passes ≥ 10°. The values pass through the URL so the page stays shareable.

No JS? Fill the form by hand. The geolocation button needs JavaScript.